Location: Czu?�w
(50.1404°N, 18.9919°E)
Time: 14:27:34
(UTC+00:00)

IRS-1A Rocket - Pass Details

Date: 27 October 2020
Orbit: 851 x 931 km, 99.2° (Epoch: 28 November)

Event Time Altitude Azimuth Distance (km) Brightness Sun altitude
Exits shadow 18:10:34 67° 49° (NE) 936 4.2 -26.4°
Drops below altitude 10° 18:15:47 10° 348° (NNW) 2,500 6.9 -27.2°
Sets 18:18:09 0° 346° (NNW) 3,436 7.7 -27.6°
